This is the latest recevied weather packets stored in our database for station/object SP7RCS-11. If no packets are shown the sender has not sent any weather packets the latest 10 day(s).
| Time | Temp. | Humidity | Pressure | Rain* | Wind** | Luminosity | Snow |
|---|---|---|---|---|---|---|---|
| 1777823101 | 32.78° C | 15% | 1008.3 hPa | - | - | - | - |
| 1777822201 | 33.89° C | 15% | 1008.5 hPa | - | - | - | - |
| 1777821300 | 35° C | 15% | 1008.6 hPa | - | - | - | - |
| 1777820400 | 35.56° C | 15% | 1008.7 hPa | - | - | - | - |
| 1777819500 | 35.56° C | 15% | 1008.8 hPa | - | - | - | - |
| 1777818597 | 35.56° C | 14% | 1008.9 hPa | - | - | - | - |
| 1777817697 | 35.56° C | 14% | 1009.3 hPa | - | - | - | - |
| 1777816795 | 37.22° C | 14% | 1009.4 hPa | - | - | - | - |
| 1777814995 | 36.67° C | 14% | 1009.9 hPa | - | - | - | - |
| 1777814093 | 37.22° C | 14% | 1010.1 hPa | - | - | - | - |
| 1777813193 | 36.67° C | 14% | 1010.2 hPa | - | - | - | - |
| 1777812293 | 37.78° C | 14% | 1010.4 hPa | - | - | - | - |
| 1777811393 | 37.78° C | 14% | 1010.5 hPa | - | - | - | - |
| 1777810493 | 38.89° C | 13% | 1010.6 hPa | - | - | - | - |
| 1777809592 | 40.56° C | 12% | 1010.8 hPa | - | - | - | - |
| 1777808690 | 42.22° C | 11% | 1011 hPa | - | - | - | - |
| 1777807790 | 42.78° C | 10% | 1011.2 hPa | - | - | - | - |
| 1777806890 | 43.33° C | 11% | 1011.2 hPa | - | - | - | - |
| 1777805989 | 44.44° C | 11% | 1011.7 hPa | - | - | - | - |
| 1777805089 | 44.44° C | 10% | 1011.7 hPa | - | - | - | - |
| 1777804189 | 43.33° C | 11% | 1011.9 hPa | - | - | - | - |
| 1777803289 | 41.67° C | 11% | 1012 hPa | - | - | - | - |
| 1777802385 | 41.67° C | 12% | 1012.2 hPa | - | - | - | - |
| 1777801485 | 41.11° C | 13% | 1012.3 hPa | - | - | - | - |
| 1777800585 | 40° C | 14% | 1012.6 hPa | - | - | - | - |
* Rain since midnight (hover to see other rain measurements)
** Current wind speed in m/s (hover to see current wind gust speed)